Theta_e
325 319 307 303 293 291 287 291 292 294 295 300 303 304 304 305 304 299 323 332 338 340 341 344 345 347 348 346 343 342 339 335 332 330 329 327 327 326 326 326 326 326 327 328 328 329 328 328 328
323 313 305 296 289 284 286 290 292 295 300 302 303 302 304 304 312 319 325 337 340 341 341 342 342 347 347 344 342 338 335 331 329 327 326 325 324 323 324 324 323 324 325 326 327 328 327 326 326
317 311 299 292 287 286 287 291 294 299 301 301 300 305 304 306 314 320 329 339 342 340 339 340 343 346 344 341 339 334 330 328 326 324 323 323 322 321 322 322 323 322 324 325 326 326 325 324 324
310 304 297 289 286 290 289 293 297 298 301 304 302 302 306 311 311 323 337 339 338 336 337 340 343 343 340 337 334 331 328 325 323 322 322 320 319 319 320 321 322 322 323 324 324 324 323 322 322
306 300 292 287 286 289 291 294 295 298 299 301 301 300 303 316 327 334 335 337 336 334 336 339 339 339 337 334 330 327 325 323 322 320 318 318 318 319 320 321 321 321 322 322 322 321 321 321 321
298 297 289 285 286 291 291 293 293 294 300 300 300 301 302 314 325 329 333 333 335 334 336 336 331 333 333 330 327 324 322 320 318 317 319 320 320 319 320 319 319 320 321 321 321 321 321 321 321
298 293 290 287 287 289 291 294 292 294 297 298 300 299 303 313 324 328 329 330 331 330 329 330 329 327 326 326 325 323 319 317 315 317 318 319 319 319 318 317 318 319 320 320 320 321 319 320 321
300 297 290 286 287 289 293 295 297 296 296 300 299 298 300 310 324 327 327 327 327 327 326 325 324 321 315 315 319 320 318 315 314 316 317 317 316 316 316 316 317 318 319 319 320 320 320 320 321
303 293 290 288 289 288 295 294 297 299 297 299 303 302 307 317 324 323 322 323 324 325 323 320 317 314 311 310 311 313 313 313 314 313 315 311 309 309 310 313 316 318 317 318 319 320 322 320 318
298 294 292 293 293 292 295 295 294 296 296 297 302 311 315 318 320 320 320 320 320 321 319 319 315 312 309 310 305 304 306 306 307 308 308 309 308 308 310 309 312 313 314 316 318 320 319 316 311
298 295 295 295 297 297 295 295 295 293 294 296 296 306 311 313 316 319 320 319 320 320 319 318 315 310 307 304 303 304 304 305 306 306 307 307 307 306 306 305 305 305 308 307 311 312 311 311 310
295 298 298 299 298 298 294 297 293 295 295 297 299 305 304 305 306 307 313 316 316 317 318 317 314 309 305 304 304 303 304 305 305 307 308 306 305 304 304 304 304 305 306 306 310 310 310 310 311
296 298 299 299 298 298 297 294 295 294 296 300 300 300 299 300 300 301 301 305 316 316 315 313 309 305 304 304 303 303 304 304 306 306 307 307 305 303 304 304 304 306 307 308 310 310 310 310 310
300 300 300 300 298 298 296 294 294 296 298 299 299 298 300 301 300 301 302 302 303 316 313 309 307 305 304 303 303 304 304 306 306 306 307 308 305 304 304 304 306 309 312 312 312 311 309 309 309
301 296 299 298 297 297 297 293 291 296 298 297 298 298 300 301 302 301 303 303 303 313 310 307 306 305 303 303 304 305 306 307 305 306 306 306 306 304 303 304 310 313 315 314 311 310 310 309 309
295 295 290 296 296 297 295 290 295 298 295 295 297 298 299 300 301 302 303 303 308 308 306 305 306 304 303 304 305 306 306 306 305 305 305 305 306 305 304 307 311 314 314 310 309 309 308 308 306
292 287 289 291 297 297 293 289 295 297 294 293 295 297 299 300 301 302 303 302 303 303 303 303 303 303 304 305 305 305 306 304 304 303 304 305 306 307 308 312 312 314 313 309 309 308 306 307 308
286 287 289 289 295 294 290 290 293 294 293 293 294 295 298 299 300 302 303 304 304 304 304 304 304 304 304 304 304 305 305 304 304 303 304 305 306 307 312 313 313 314 313 310 308 306 307 307 306
293 291 290 293 297 292 289 289 290 292 291 291 292 295 296 298 300 301 302 302 303 303 304 304 304 304 304 303 302 302 302 303 303 303 304 304 305 307 312 314 313 314 313 312 309 307 305 305 306
289 291 291 294 295 291 288 287 289 290 290 291 292 294 297 298 298 298 298 299 299 300 301 303 303 304 305 304 303 303 303 303 303 304 304 304 305 307 311 313 312 313 313 312 312 307 305 305 304
288 288 289 291 291 291 288 285 287 289 290 291 292 293 294 294 294 295 295 293 294 294 297 298 299 301 303 304 304 304 304 304 304 303 303 304 305 308 310 311 311 313 313 311 311 312 306 303 303
286 292 292 291 288 282 290 279 284 287 286 287 289 290 291 291 293 293 292 292 291 292 293 295 296 297 299 302 302 301 301 302 305 306 306 306 307 309 311 313 312 313 313 312 311 312 310 310 303
290 292 291 291 287 284 284 283 284 287 284 285 287 289 289 290 290 290 290 290 290 290 290 291 293 293 296 300 302 305 305 306 307 307 307 309 311 312 312 313 313 313 313 313 312 312 311 311 307
294 293 291 289 287 279 283 284 283 283 285 284 285 286 287 288 288 288 289 289 288 288 288 289 290 290 292 295 296 297 299 301 300 303 304 306 308 308 309 311 312 313 313 312 312 312 312 312 310
293 289 281 277 276 277 285 283 284 285 286 286 284 283 284 286 286 285 285 285 285 286 287 288 288 288 289 291 291 293 294 295 295 296 297 298 300 301 302 306 309 309 311 312 313 312 312 312 310
289 290 282 275 276 279 284 282 284 285 286 286 285 283 283 282 282 282 283 283 284 285 286 286 287 287 288 288 288 290 291 292 292 292 293 294 294 296 298 301 303 304 305 306 308 311 311 311 310
287 283 290 283 278 280 282 281 283 284 283 283 282 282 281 281 282 282 283 283 283 283 283 284 285 285 286 286 287 287 288 288 288 289 290 291 292 293 294 296 297 299 298 298 300 301 301 304 307
288 292 283 282 274 275 278 280 281 280 280 281 281 280 280 281 281 282 282 282 282 281 281 281 282 281 282 283 283 284 283 284 284 285 284 286 288 289 290 291 293 294 294 294 295 295 296 297 299
285 284 285 285 281 278 276 280 283 283 282 280 280 281 281 281 281 280 280 281 280 279 279 279 280 280 280 281 281 281 282 282 282 282 283 283 284 285 285 287 289 290 290 290 290 290 292 293 294
286 286 286 281 279 279 280 278 283 285 283 282 281 281 281 281 280 278 278 278 278 277 277 278 278 279 279 279 279 279 280 280 281 280 281 282 282 283 284 284 285 288 286 288 286 285 286 288 290
Wind_Speed
8 7 1 5 5 5 3 5 2 2 1 3 3 6 8 3 3 3 1 3 10 13 9 12 13 13 11 12 11 13 10 8 8 8 8 8 8 8 7 8 10 10 11 12 12 12 13 12 12
4 4 5 2 6 3 5 4 3 2 1 4 3 3 7 3 2 4 3 3 11 11 8 7 11 12 13 11 12 11 9 8 7 7 7 6 6 6 7 7 7 9 10 11 11 12 12 13 13
6 2 3 4 3 4 4 4 3 2 3 2 3 6 3 0 2 5 4 8 10 6 4 9 13 13 13 11 13 11 9 8 7 6 6 6 6 7 8 9 10 10 10 11 12 12 12 13 13
3 3 3 4 3 5 4 2 3 1 2 3 3 6 2 3 2 5 7 8 10 6 5 9 14 14 14 11 10 11 9 8 6 6 6 6 6 6 7 8 9 9 10 12 13 13 13 13 14
3 1 3 2 4 5 4 2 2 1 1 4 2 3 3 4 6 8 8 8 11 6 6 11 15 14 13 11 10 10 9 7 7 6 5 6 7 6 7 8 8 10 12 11 11 12 11 12 12
2 1 4 1 4 5 4 2 2 1 1 2 6 4 1 2 5 4 6 7 6 9 8 9 11 13 10 9 9 8 9 7 6 5 7 8 7 6 7 8 8 10 10 11 11 11 11 12 13
3 1 3 1 3 5 2 1 2 1 2 4 1 4 2 1 5 6 6 7 6 5 6 7 7 12 10 9 8 7 8 5 6 6 8 9 9 7 8 8 10 10 11 12 12 12 12 12 13
2 1 4 3 1 3 3 2 1 3 2 0 1 4 4 4 8 7 7 7 6 5 5 6 6 8 6 5 7 6 7 5 6 7 8 8 8 8 7 8 10 10 10 11 11 12 12 13 12
2 2 2 3 2 4 4 1 3 1 2 3 4 2 4 8 9 7 6 4 3 4 3 6 5 5 5 4 3 5 6 6 6 6 8 6 4 5 6 8 11 11 11 10 10 13 13 12 11
3 3 5 2 1 3 5 1 4 3 4 3 4 5 6 6 7 8 5 5 4 4 3 5 4 5 4 3 3 4 4 3 3 4 5 4 5 4 5 6 10 10 10 11 12 11 11 9 4
2 3 3 1 2 3 4 4 3 2 4 3 3 4 3 4 5 6 5 5 6 4 3 5 5 5 5 3 2 2 2 2 3 4 4 4 3 4 4 3 4 4 6 4 6 5 4 6 5
1 4 4 6 6 5 5 6 3 5 6 7 8 8 6 9 7 6 4 4 4 5 5 6 5 5 4 3 3 2 2 2 3 3 4 3 3 4 4 3 4 4 3 5 4 3 5 5 6
1 3 7 7 7 6 3 3 5 9 10 13 17 16 12 9 8 6 7 2 5 6 5 6 6 5 4 4 3 3 3 3 2 3 3 3 3 4 4 4 4 4 4 4 4 4 4 5 5
4 3 11 9 6 4 2 5 4 8 6 18 16 13 11 12 9 7 9 7 4 6 7 6 6 5 5 3 4 3 3 3 3 3 3 4 3 3 4 3 4 4 4 4 4 4 4 4 4
11 3 14 8 2 3 3 7 7 8 8 16 13 11 11 11 12 11 9 8 5 3 8 6 6 6 6 5 4 4 3 4 4 3 4 4 4 3 3 3 3 4 4 6 5 4 4 4 5
3 10 5 6 5 2 3 0 9 10 7 13 12 11 11 14 13 13 13 10 9 10 9 7 6 6 6 5 4 4 4 4 3 4 4 5 5 4 4 4 4 5 4 3 4 4 5 4 4
6 4 4 7 5 4 3 3 7 10 9 11 11 10 11 13 17 16 15 13 14 12 10 8 7 6 6 5 4 5 5 4 3 3 3 5 5 5 3 3 3 5 4 4 4 3 2 4 6
5 3 5 7 5 8 9 6 6 8 9 10 9 9 11 13 14 13 15 14 14 11 10 8 6 6 5 3 3 3 4 4 3 4 4 5 4 6 4 3 4 4 5 4 5 4 3 3 5
17 5 11 5 3 8 5 5 7 7 9 9 8 8 10 10 9 13 14 13 14 13 12 9 9 7 5 4 3 3 3 2 3 4 5 6 5 6 5 3 4 5 4 4 5 4 5 3 6
4 16 16 6 4 6 4 4 5 6 5 6 9 10 8 9 11 13 14 13 15 12 12 11 10 9 6 3 2 2 1 2 2 3 4 5 6 6 4 4 4 5 5 7 7 5 4 3 4
2 4 8 6 3 5 7 2 4 3 5 7 7 9 9 10 11 12 12 12 12 13 12 11 11 10 8 7 4 3 3 3 4 4 4 5 6 6 5 5 4 4 4 4 5 5 6 4 3
3 4 6 4 4 4 4 5 3 5 4 4 5 7 6 8 9 10 11 13 12 11 10 11 11 11 9 10 5 6 3 4 3 3 2 4 6 7 7 6 5 4 4 5 4 4 3 3 4
4 3 3 4 3 2 1 2 1 6 4 4 2 4 5 7 8 9 11 11 11 10 9 9 10 12 12 12 11 8 8 5 5 6 8 9 7 8 10 9 9 7 5 5 5 6 6 3 2
5 6 7 4 3 0 7 7 4 6 5 6 3 3 5 6 7 9 10 10 11 9 10 10 11 12 12 12 13 13 13 11 9 10 8 8 7 8 12 11 9 8 8 7 6 5 5 4 3
2 8 3 4 2 5 3 3 4 5 4 7 9 5 4 6 7 9 10 10 9 11 11 10 11 12 12 13 13 13 12 12 10 10 8 10 8 9 12 13 11 10 11 10 9 7 6 5 4
7 9 6 7 4 4 2 7 2 4 7 10 9 7 6 6 5 7 7 7 8 9 10 10 11 11 12 12 12 11 13 8 8 9 8 7 8 8 12 12 12 14 14 13 12 9 9 8 6
7 6 5 4 1 2 4 2 3 7 8 9 9 8 6 5 5 6 6 6 7 8 9 10 10 11 12 12 10 12 11 12 10 11 10 8 9 10 12 12 12 13 13 14 13 10 13 12 12
7 8 3 2 4 5 4 4 6 14 13 10 9 8 7 6 5 5 5 6 6 7 8 10 10 10 11 11 10 10 11 11 11 10 12 12 11 12 12 13 13 14 14 14 13 11 13 13 11
4 4 4 3 4 5 3 7 3 13 16 15 10 9 9 7 6 5 5 5 6 7 8 9 10 11 11 10 10 11 10 11 10 10 10 11 11 12 13 12 12 13 14 14 13 13 14 14 13
1 6 7 5 5 3 2 5 5 7 13 14 11 10 8 8 7 5 5 5 7 7 8 9 9 10 9 9 9 10 10 11 11 11 11 12 12 11 12 12 12 12 13 13 14 14 13 14 14
Wind_Direction
348 315 63 35 60 64 274 263 262 302 31 334 319 106 116 44 87 185 307 191 131 147 153 162 160 156 148 142 102 90 96 94 87 75 63 56 43 30 24 17 6 356 349 343 337 334 332 332 330
344 315 42 80 86 79 267 264 246 227 247 156 76 71 43 61 72 134 100 130 138 146 162 150 143 136 130 121 110 101 102 97 86 81 70 54 44 32 11 10 3 350 346 343 342 341 339 336 331
318 334 77 90 111 179 220 223 218 275 307 200 89 55 70 15 52 143 116 133 124 125 138 124 138 132 117 108 111 112 111 102 91 75 65 52 30 19 9 358 355 352 348 345 340 335 337 335 331
321 3 49 86 218 248 225 223 224 286 312 38 132 64 55 311 317 138 130 118 108 108 102 121 116 110 109 106 110 115 107 95 77 59 45 36 21 14 9 2 354 351 345 337 334 334 334 331 325
23 324 86 79 271 271 259 242 185 235 91 17 354 140 50 31 65 105 115 121 122 102 101 105 105 108 107 119 116 115 107 93 79 56 33 16 7 13 16 6 357 348 343 345 343 339 334 330 330
316 190 84 168 264 269 291 336 329 317 49 36 57 78 6 77 102 113 114 113 115 125 122 112 112 103 99 114 116 116 100 92 75 52 28 21 14 1 5 359 355 350 355 354 352 343 338 327 325
300 97 153 124 252 301 235 355 68 24 78 40 69 84 295 65 137 125 113 98 100 96 103 113 112 103 112 105 102 108 96 78 66 45 27 17 18 24 11 4 351 348 354 351 349 340 342 344 339
191 36 121 235 230 282 337 31 359 38 77 163 79 177 192 199 136 101 80 90 96 100 105 113 101 101 113 115 120 107 85 61 46 33 26 23 19 5 5 3 357 2 359 358 349 350 335 339 346
63 103 131 6 333 303 340 26 356 312 53 62 29 77 324 104 112 101 99 74 92 93 109 90 103 117 122 118 116 74 62 43 37 33 17 16 11 358 2 350 360 8 359 351 338 345 0 353 345
74 155 143 188 264 305 314 49 324 40 15 40 58 40 59 99 123 132 148 153 171 147 150 125 134 134 126 122 94 74 51 39 32 28 21 22 16 357 358 353 358 355 350 338 342 355 351 352 339
140 195 86 43 14 344 328 359 322 93 51 44 23 152 114 101 101 143 184 176 192 160 164 154 152 150 134 123 89 52 51 47 36 23 18 21 18 355 1 355 347 337 346 334 339 346 357 345 333
38 306 320 337 350 351 344 318 27 20 355 31 29 82 47 42 28 357 308 250 181 175 175 158 155 146 129 106 86 90 66 53 39 27 14 30 12 359 359 354 339 341 325 326 342 347 337 338 333
73 245 310 289 328 311 344 357 36 11 32 66 64 52 46 42 18 7 350 307 203 177 163 162 138 133 127 104 98 73 61 60 49 28 16 29 16 358 354 349 336 330 316 324 352 341 343 340 346
139 30 292 297 298 293 29 9 64 11 348 58 55 49 38 30 10 351 2 346 338 154 150 142 129 130 126 102 88 74 54 48 45 24 7 24 22 7 2 352 330 317 321 318 354 341 336 336 348
133 217 290 253 283 254 139 39 30 335 2 63 49 43 35 23 20 10 349 315 326 122 111 114 114 102 93 92 87 71 43 43 34 22 9 13 35 18 8 335 324 319 321 348 345 346 337 341 337
201 172 201 281 176 239 99 127 27 7 31 60 50 41 34 29 20 17 13 13 37 77 80 81 78 84 82 83 70 63 55 50 34 8 2 8 25 17 1 335 337 328 333 353 349 342 332 329 348
197 166 181 306 193 110 80 133 26 25 46 45 45 40 39 32 24 23 24 35 46 60 66 59 57 63 75 65 61 62 61 43 14 14 12 0 13 3 341 354 340 330 331 351 349 328 338 321 340
227 169 161 223 217 56 78 102 56 35 52 52 44 34 44 38 29 29 29 35 43 40 54 47 42 37 44 48 60 49 52 31 17 13 4 7 1 1 -0 15 349 344 330 347 347 334 327 302 330
178 243 257 158 220 93 89 74 29 38 42 46 46 40 45 43 30 37 37 26 41 29 37 28 33 11 26 24 19 34 26 357 2 1 1 5 6 359 2 4 6 340 337 345 340 326 340 328 343
56 166 235 295 97 80 131 93 78 53 56 49 50 47 49 56 42 38 33 28 36 26 23 23 21 21 19 25 36 73 37 10 340 333 358 5 0 4 2 5 3 352 350 356 353 13 334 327 15
197 186 192 176 113 59 129 190 190 61 80 64 54 56 45 49 48 42 36 32 30 25 15 17 15 16 18 14 32 31 39 33 358 355 347 348 355 358 355 354 1 2 359 351 339 356 9 336 332
207 210 135 114 119 212 204 253 213 158 112 71 63 58 47 49 53 47 38 38 29 14 14 16 17 19 14 9 21 49 50 33 358 325 328 8 1 358 357 344 359 3 346 347 340 340 345 352 348
191 143 128 126 157 61 271 36 199 139 194 162 135 106 67 58 54 48 42 41 33 15 13 14 19 23 18 29 25 32 36 24 15 11 12 18 8 10 8 5 358 1 348 343 343 347 345 355 336
127 57 47 62 111 299 213 160 233 188 186 161 154 104 77 69 59 55 46 42 33 17 18 23 23 24 22 33 30 30 36 30 27 14 9 14 10 8 7 0 2 358 3 341 336 328 342 337 343
79 84 19 360 349 218 138 173 250 151 144 155 152 128 77 69 63 56 45 34 27 24 21 26 28 26 22 32 33 28 30 35 30 22 10 12 8 7 360 359 9 7 5 358 349 340 338 338 336
162 159 156 186 205 223 130 222 211 117 108 112 118 115 92 64 58 58 46 39 33 31 28 31 32 31 25 30 35 32 29 32 30 24 18 13 10 3 359 5 11 10 16 7 1 5 359 341 335
176 192 193 101 338 95 209 289 182 144 139 135 136 124 111 88 64 58 49 43 40 38 33 33 35 35 32 30 32 34 31 31 26 26 24 17 13 8 8 9 12 21 15 12 9 10 6 358 1
151 157 121 90 181 228 216 247 225 193 180 163 155 146 132 117 94 70 55 43 41 41 37 38 40 42 37 35 34 35 33 31 30 28 24 17 14 14 15 15 16 22 20 16 16 8 5 2 2
164 180 195 142 171 194 178 248 23 192 174 169 162 155 142 134 116 92 67 46 44 45 41 44 43 41 37 33 32 33 28 29 29 29 21 17 16 15 17 15 17 23 17 17 17 14 8 7 1
221 208 183 162 209 231 223 269 330 158 162 150 152 148 138 130 117 103 90 70 58 51 45 45 43 44 36 32 33 30 28 25 27 21 18 13 15 15 14 15 17 15 20 17 15 11 7 4 3